Regional Weather Roundup
Issued by NWS

Home | Current Version | Previous Version | Graphics & Text | Print | Product List | Glossary On
Versions: 1 2 3 4 5 6 7 8 9 10 11 12 13 14 15 16 17 18 19 20 21 22 23 24 25 26 27 28 29 30 31 32 33 34 35 36 37 38 39 40 41 42 43 44 45 46 47 48 49 50
420
ASUS44 KLIX 210505
RWRLA
LOUISIANA WEATHER ROUNDUP
NATIONAL WEATHER SERVICE NEW ORLEANS LA
1100 PM CST SAT DEC 20 2014

NOTE: "FAIR" INDICATES FEW OR NO CLOUDS BELOW 12,000 FEET WITH NO
      SIGNIFICANT WEATHER AND/OR OBSTRUCTIONS TO VISIBILITY.
      SKY/WX - SKY CONDITION AND SIGNIFICANT WEATHER.
      TMP - AIR TEMPERATURE.    DP   - DEWPOINT TEMPERATURE.
      RH  - RELATIVE HUMIDITY.  PRES - PRESSURE.
      HX  - HEAT INDEX.         WCI  - WIND CHILL INDEX.

*  THESE STATIONS ARE NOT NWS OR FAA STATIONS AND ARE NOT UNDER
   NWS QUALITY CONTROL.

LAZ040-048-061>063-065-066-069-210600-
SOUTHEAST LOUISIANA

CITY           SKY/WX    TMP DP  RH WIND       PRES   REMARKS
N.O. AUDUBON     N/A     52  50  91 MISG        N/A
N.O. INTL ARPT CLOUDY    53  47  79 NE12      30.16S
N.O. LAKEFRONT CLOUDY    54  47  77 NE13      30.17S
N.O. DOWNTOWN* CLOUDY    54  45  71 NE5       30.16F
SLIDELL        CLOUDY    53  47  79 NE7       30.16R
BATON ROUGE    MOCLDY    43  42  97 CALM      30.17F
BOOTHVILLE     CLOUDY    54  52  93 NE9       30.14S
BELLE CHASSE   CLOUDY    53  48  83 NE7       30.16S
BOGALUSA*        N/A     51  47  85 N5        30.18F
GALLIANO*      CLOUDY    54  49  85 MISG      30.15F
NEW ROADS*     FAIR      43  42  98 CALM      30.18S FOG
GONZALES*      CLOUDY    50  50  99 NE3       30.17S
HAMMOND*       NOT AVBL
HOUMA*         CLOUDY    51  49  93 NE9       30.16S
PORT FOURCHON* CLOUDY    54  50  87 NE15G22   30.17F

$$

LAZ041-044-053-054-210600-
SOUTHWEST LOUISIANA

CITY           SKY/WX    TMP DP  RH WIND       PRES   REMARKS
LAKE CHARLES   PTCLDY    47  44  90 N8        30.18S
LAFAYETTE      CLEAR     45  43  93 CALM      30.17F
PATTERSON      CLOUDY    50  46  87 NE6       30.18R
SALT POINT       N/A     54  49  83 CALM      30.16R
NEW IBERIA     CLOUDY    49  46  90 E7        30.17F
CHENAULT AIRPK PTCLDY    45  44  95 N7        30.18F

$$

LAZ027-028-210600-
CENTRAL LOUISIANA

CITY           SKY/WX    TMP DP  RH WIND       PRES   REMARKS
FORT POLK      CLEAR     42  41  97 N8        30.19
ALEXANDRIA INT CLEAR     41  40  96 NW3       30.18F FOG
ALEXANDRIA     CLEAR     40  39  97 CALM      30.19S

$$

LAZ001-002-210600-
NORTHWEST LOUISIANA

CITY           SKY/WX    TMP DP  RH WIND       PRES   REMARKS
SHREVEPORT     PTCLDY    39  38  96 CALM      30.21R FOG
BARKSDALE AFB  NOT AVBL
DTN SHREVEPORT FOG       37  36  96 CALM      30.23R VSB 3/4

$$

LAZ014-016-210600-
NORTHEAST LOUISIANA

CITY           SKY/WX    TMP DP  RH WIND       PRES   REMARKS
MONROE         CLEAR     38  37  97 NE3       30.23R
TALLULAH       CLEAR     43  38  82 NE7       30.21S

$$




USA.gov is the U.S. government's official web portal to all federal, state and local government web resources and services.